Volver al catálogo

ENMAP

ActivoCienciaSSO
NORAD 52159·PAYLOAD·🇩🇪 Germany

Lanzado Apr 1, 2022 desde Cape Canaveral Space Force Station

Loading…

Próximos Pases (próximas 24 horas)

TLE

ActualizadoSource: Space-Track

Época: Sep 14, 2026, 15:29 UTC

1 52159U 22033C   26257.64566490  .00000046  00000-0  14309-4 0  9995
2 52159  97.9781 338.6107 0001616  89.3800 270.7594 14.74984945239840

Sigue ENMAP en tiempo real con AllMySat

Download on the App Store